DW7898 Weather Reports


time (UTC)temp
C
wind
direction
speed
KPH
gust
KPH
rain 1hr
cm
rain 24hr
cm
rain mn
cm
humidity
%
barometer
mb
20260903063340 22 39 0.0 1.6 0.00 0.00 0.00 70 1023.8
20260903062353 21 40 0.0 4.8 0.00 0.00 0.00 70 1023.7
20260903061357 21 39 4.8 6.4 0.00 0.00 0.00 70 1023.6
20260903060343 21 40 1.6 3.2 0.00 0.00 0.00 71 1023.5
20260903055343 21 40 0.0 3.2 0.00 0.00 0.00 72 1023.5
20260903054348 21 40 1.6 3.2 0.00 0.00 0.00 72 1023.3
20260903053356 21 40 0.0 1.6 0.00 0.00 0.00 71 1023.3
20260903052355 21 40 0.0 3.2 0.00 0.00 0.00 72 1023.1
20260903051356 21 40 0.0 1.6 0.00 0.00 0.00 71 1023.1
20260903050343 21 40 0.0 1.6 0.00 0.00 0.00 72 1023.1
20260903045357 21 40 0.0 3.2 0.00 0.00 0.00 71 1022.9
20260903044338 21 40 1.6 4.8 0.00 0.00 0.00 72 1022.9
20260903043344 21 40 1.6 6.4 0.00 0.00 0.00 71 1022.9
20260903042355 21 41 0.0 3.2 0.00 0.00 0.00 71 1022.9
20260903041356 21 41 0.0 3.2 0.00 0.00 0.00 71 1022.9
20260903040343 21 41 1.6 6.4 0.00 0.00 0.00 71 1023.0
20260903035340 21 40 1.6 4.8 0.00 0.00 0.00 71 1023.1
20260903034337 21 40 3.2 6.4 0.00 0.00 0.00 71 1023.2
20260903033358 21 40 1.6 6.4 0.00 0.00 0.00 70 1023.2
20260903032355 21 41 0.0 4.8 0.00 0.00 0.00 70 1023.2
20260903031351 21 41 1.6 3.2 0.00 0.00 0.00 70 1023.2
20260903030352 21 41 0.0 3.2 0.00 0.00 0.00 70 1023.3
20260903025349 21 41 1.6 4.8 0.00 0.00 0.00 70 1023.4
20260903024349 21 41 0.0 4.8 0.00 0.00 0.00 70 1023.4
20260903023349 22 41 0.0 0.0 0.00 0.00 0.00 71 1023.4
20260903022341 22 41 0.0 1.6 0.00 0.00 0.00 71 1023.4
20260903021342 22 41 0.0 3.2 0.00 0.00 0.00 70 1023.4
20260903020339 22 41 1.6 3.2 0.00 0.00 0.00 71 1023.4
20260903015356 22 41 0.0 3.2 0.00 0.00 0.00 71 1023.5
20260903014342 22 41 0.0 4.8 0.00 0.00 0.00 71 1023.4
20260903013346 22 41 0.0 8.0 0.00 0.00 0.00 70 1023.4
20260903012343 22 42 3.2 8.0 0.00 0.00 0.00 70 1023.4
20260903011352 22 44 4.8 6.4 0.00 0.00 0.00 69 1023.5
20260903010353 22 45 1.6 4.8 0.00 0.00 0.00 68 1023.6
20260903005351 22 45 3.2 4.8 0.00 0.00 0.00 68 1023.5
20260903004351 22 45 0.0 3.2 0.00 0.00 0.00 68 1023.6
20260903003347 22 45 0.0 3.2 0.00 0.00 0.00 67 1023.7
20260903002342 23 45 1.6 3.2 0.00 0.00 0.00 67 1023.7
20260903001342 23 45 0.0 1.6 0.00 0.00 0.00 67 1023.7
20260903000347 23 45 0.0 1.6 0.00 0.00 0.00 67 1023.6
20260902235345 23 45 0.0 3.2 0.00 0.00 0.00 66 1023.7
20260902234341 23 45 3.2 4.8 0.00 0.00 0.00 66 1023.6
20260902233359 23 45 1.6 6.4 0.00 0.00 0.00 66 1023.5
20260902232356 23 45 3.2 6.4 0.00 0.00 0.00 65 1023.5
20260902231342 23 49 3.2 6.4 0.00 0.00 0.00 64 1023.5
20260902230356 23 93 1.6 4.8 0.00 0.00 0.00 64 1023.5
20260902225354 23 96 3.2 6.4 0.00 0.00 0.00 64 1023.5
20260902224355 24 135 0.0 3.2 0.00 0.00 0.00 64 1023.5
20260902223356 24 135 0.0 1.6 0.00 0.00 0.00 64 1023.5
20260902222355 24 135 1.6 3.2 0.00 0.00 0.00 63 1023.5
20260902221340 24 135 0.0 1.6 0.00 0.00 0.00 63 1023.6
20260902220344 24 135 0.0 1.6 0.00 0.00 0.00 62 1023.6
20260902215400 24 135 0.0 1.6 0.00 0.00 0.00 62 1023.6
20260902214338 25 135 0.0 3.2 0.00 0.00 0.00 61 1023.6
20260902213341 25 135 0.0 4.8 0.00 0.00 0.00 60 1023.5
20260902212356 25 135 0.0 0.0 0.00 0.00 0.00 60 1023.6
20260902211355 25 135 0.0 1.6 0.00 0.00 0.00 60 1023.4
20260902210341 25 135 1.6 4.8 0.00 0.00 0.00 59 1023.5
20260902205339 25 135 0.0 3.2 0.00 0.00 0.00 59 1023.5
20260902204357 25 135 0.0 1.6 0.00 0.00 0.00 59 1023.3
20260902203343 25 135 0.0 1.6 0.00 0.00 0.00 58 1023.5
20260902202400 25 135 0.0 1.6 0.00 0.00 0.00 59 1023.4
20260902201401 25 135 1.6 4.8 0.00 0.00 0.00 58 1023.4
20260902200340 25 135 1.6 4.8 0.00 0.00 0.00 59 1023.3
20260902195359 25 135 0.0 6.4 0.00 0.00 0.00 59 1023.2
20260902194338 26 136 0.0 4.8 0.00 0.00 0.00 59 1023.2
20260902193346 26 136 3.2 6.4 0.00 0.00 0.00 60 1023.2
20260902192359 26 136 1.6 4.8 0.00 0.00 0.00 59 1023.1
20260902191356 26 136 0.0 4.8 0.00 0.00 0.00 59 1022.9
20260902190338 26 135 1.6 4.8 0.00 0.00 0.00 59 1022.8
20260902185340 26 137 4.8 8.0 0.00 0.00 0.00 58 1022.7
20260902184357 26 200 1.6 6.4 0.00 0.00 0.00 58 1022.6
20260902183359 27 207 0.0 8.0 0.00 0.00 0.00 57 1022.5
20260902182351 27 151 1.6 6.4 0.00 0.00 0.00 57 1022.5
20260902181354 27 152 3.2 12.9 0.00 0.00 0.00 56 1022.5
20260902180349 27 126 1.6 6.4 0.00 0.00 0.00 56 1022.4
20260902175402 27 90 1.6 11.3 0.00 0.00 0.00 55 1022.1
20260902174359 27 207 3.2 14.5 0.00 0.00 0.00 56 1022.2
20260902173357 27 171 3.2 12.9 0.00 0.00 0.00 56 1022.1
20260902172349 27 167 6.4 14.5 0.00 0.00 0.00 56 1022.0
20260902171342 27 127 6.4 17.7 0.00 0.00 0.00 55 1022.0
20260902170357 27 125 4.8 19.3 0.00 0.00 0.00 55 1022.1
20260902165348 28 126 9.7 19.3 0.00 0.00 0.00 54 1022.0
20260902164343 28 127 9.7 20.9 0.00 0.00 0.00 53 1021.9
20260902163343 28 110 11.3 19.3 0.00 0.00 0.00 52 1022.0
20260902162355 28 124 9.7 19.3 0.00 0.00 0.00 51 1022.1
20260902161349 29 136 6.4 14.5 0.00 0.00 0.00 49 1022.0
20260902160346 29 208 4.8 17.7 0.00 0.00 0.00 49 1022.2
20260902155351 29 131 8.0 16.1 0.00 0.00 0.00 49 1022.1
20260902154351 28 139 9.7 20.9 0.00 0.00 0.00 50 1022.2
20260902153347 29 140 8.0 19.3 0.00 0.00 0.00 47 1022.1
20260902152347 29 205 8.0 19.3 0.00 0.00 0.00 49 1022.2
20260902151342 28 133 9.7 17.7 0.00 0.00 0.00 49 1022.2
20260902150403 29 170 6.4 17.7 0.00 0.00 0.00 48 1022.2
20260902145357 29 148 9.7 20.9 0.00 0.00 0.00 49 1022.3
20260902144354 29 149 6.4 22.5 0.00 0.00 0.00 46 1022.3
20260902143351 29 153 9.7 20.9 0.00 0.00 0.00 46 1022.4
20260902142359 29 124 9.7 19.3 0.00 0.00 0.00 45 1022.5
20260902141354 29 119 9.7 20.9 0.00 0.00 0.00 44 1022.5
20260902140354 29 156 6.4 17.7 0.00 0.00 0.00 45 1022.7
20260902135347 29 128 16.1 22.5 0.00 0.00 0.00 45 1022.5
20260902134347 30 123 9.7 24.1 0.00 0.00 0.00 44 1022.7
20260902133343 29 201 8.0 24.1 0.00 0.00 0.00 44 1022.7
20260902132358 29 95 9.7 22.5 0.00 0.00 0.00 43 1022.8
20260902131340 29 118 16.1 25.7 0.00 0.00 0.00 43 1023.0
20260902130401 29 122 14.5 24.1 0.00 0.00 0.00 42 1022.9
20260902125347 29 128 11.3 27.4 0.00 0.00 0.00 42 1022.8
20260902124401 30 127 11.3 19.3 0.00 0.00 0.00 41 1022.8
20260902123353 30 165 6.4 20.9 0.00 0.00 0.00 41 1022.7
20260902122344 30 202 6.4 27.4 0.00 0.00 0.00 42 1022.7
20260902121339 30 238 6.4 19.3 0.00 0.00 0.00 40 1022.7
20260902120401 30 236 9.7 24.1 0.00 0.00 0.00 40 1022.6
20260902115355 30 137 8.0 27.4 0.00 0.00 0.00 39 1022.7
20260902114349 30 133 14.5 24.1 0.00 0.00 0.00 38 1022.7
20260902113349 30 158 12.9 27.4 0.00 0.00 0.00 38 1022.6
20260902112401 30 167 9.7 24.1 0.00 0.00 0.00 38 1022.6
20260902111340 31 225 4.8 20.9 0.00 0.00 0.00 38 1022.6
20260902110400 31 163 11.3 20.9 0.00 0.00 0.00 37 1022.6
20260902105351 31 250 6.4 19.3 0.00 0.00 0.00 37 1022.5
20260902104347 30 128 8.0 20.9 0.00 0.00 0.00 37 1022.6
20260902103349 31 125 11.3 22.5 0.00 0.00 0.00 36 1022.6
20260902102342 31 96 4.8 16.1 0.00 0.00 0.00 36 1022.5
20260902101342 31 49 1.6 4.8 0.00 0.00 0.00 38 1022.6
20260902100401 31 49 3.2 8.0 0.00 0.00 0.00 39 1022.4
20260902095355 30 17 0.0 6.4 0.00 0.00 0.00 43 1022.5
20260902094355 30 306 3.2 6.4 0.00 0.00 0.00 46 1022.5
20260902093349 29 302 0.0 6.4 0.00 0.00 0.00 50 1022.6
20260902092342 28 303 4.8 8.0 0.00 0.00 0.00 51 1022.5
20260902091347 27 339 3.2 6.4 0.00 0.00 0.00 52 1022.5
20260902090345 27 340 3.2 6.4 0.00 0.00 0.00 55 1022.4
20260902085357 26 340 1.6 8.0 0.00 0.00 0.00 58 1022.4
20260902084357 26 340 0.0 8.0 0.00 0.00 0.00 59 1022.3
20260902083341 26 30 3.2 4.8 0.00 0.00 0.00 61 1022.4
20260902082339 25 31 0.0 4.8 0.00 0.00 0.00 63 1022.2
20260902081339 25 31 3.2 6.4 0.00 0.00 0.00 63 1022.3
20260902080345 25 35 1.6 3.2 0.00 0.00 0.00 65 1022.2
20260902075343 25 35 3.2 4.8 0.00 0.00 0.00 66 1022.1
20260902074345 24 37 3.2 6.4 0.00 0.00 0.00 67 1022.1
20260902073349 23 46 0.0 6.4 0.00 0.00 0.00 69 1022.2
20260902072341 23 41 4.8 6.4 0.00 0.00 0.00 70 1022.2
20260902071401 23 38 1.6 6.4 0.00 0.00 0.00 72 1022.1
20260902070338 23 38 3.2 4.8 0.00 0.00 0.00 72 1022.0
20260902065357 23 38 0.0 3.2 0.00 0.00 0.00 73 1021.9
20260902064359 23 38 0.0 3.2 0.00 0.00 0.00 74 1021.8